RH
10 11 13 14 16 14 10 8 8 9 10 10 9 8 7 7 5 4 3 2 3 3 2 2 2 2 2 2 2 2 2 2 2 2 2 3 3 3 3 2 2 2 2 3 3 3 3 3 4 4 4 4 4 5 5 5 6 6 6 8 11 11 10 13 17 21 24 24 22 22 23 24 24 23 23 20 19 19 18 17 18 21 24 23 23 21 19 18
6 7 9 9 10 7 5 8 12 14 13 8 6 7 10 10 5 3 3 2 2 2 2 2 2 2 2 2 2 2 2 2 2 2 3 4 4 3 2 2 2 2 2 2 3 2 3 3 3 4 4 4 4 4 5 5 5 7 6 8 11 13 15 19 22 24 25 23 22 23 25 27 26 23 20 16 18 19 15 14 17 20 21 21 22 22 20 19
3 4 4 4 5 3 8 18 23 24 21 13 7 8 12 13 9 3 2 3 2 2 2 2 2 2 2 2 2 3 3 3 3 4 5 6 5 4 2 2 2 2 2 2 3 3 3 3 3 4 4 3 4 5 5 6 8 10 11 14 18 19 21 22 23 23 22 22 23 25 26 24 24 22 18 15 17 20 19 17 18 21 21 21 22 23 22 21
2 2 2 2 2 5 15 23 23 23 26 22 12 6 7 10 9 4 2 3 2 2 2 2 2 2 3 3 3 3 3 4 4 5 5 4 5 4 3 2 2 2 2 2 2 3 4 6 7 8 9 9 10 11 11 13 15 16 18 20 21 21 23 21 20 21 22 23 23 22 19 19 23 20 17 17 18 21 24 23 22 22 22 22 22 23 23 22
1 1 1 2 2 6 11 12 10 11 19 24 16 5 3 5 5 3 3 2 2 2 2 2 3 3 3 3 3 3 3 4 4 4 4 4 4 4 3 2 1 1 2 4 6 9 12 13 14 14 15 16 17 18 17 17 17 18 18 19 18 19 21 18 19 22 22 20 15 14 14 17 21 20 21 24 22 20 23 26 26 25 24 23 22 21 21 21
1 1 1 1 2 3 4 3 2 3 7 13 12 5 2 3 3 3 3 2 2 2 2 3 3 3 3 3 3 3 3 4 3 3 3 3 3 3 3 3 4 7 9 12 14 15 14 13 12 13 14 15 16 15 14 13 13 15 15 15 15 14 14 14 18 20 17 13 10 11 12 18 23 23 29 30 25 24 26 27 29 29 26 24 23 21 20 20
1 1 1 1 2 2 2 2 2 2 2 4 4 3 3 3 2 3 2 2 3 3 3 3 3 3 3 3 3 3 4 4 4 3 4 4 6 7 8 10 12 13 12 13 13 11 9 9 9 10 11 11 11 10 9 9 10 13 15 13 11 11 11 12 14 14 12 10 10 11 14 23 26 27 31 30 26 28 29 29 30 29 27 26 25 23 22 21
1 1 1 2 2 2 2 2 2 2 2 2 3 3 3 3 3 3 3 3 3 4 4 4 4 3 3 3 3 5 6 7 7 8 10 11 11 11 11 12 11 9 9 8 8 8 7 7 8 9 10 9 8 8 8 9 10 13 13 10 8 10 10 9 10 11 11 9 11 14 17 22 26 28 31 29 27 28 29 31 30 28 27 26 25 23 22 21
2 2 2 2 2 2 2 2 3 3 3 3 3 3 3 3 3 3 3 4 4 4 4 4 4 4 5 5 6 8 9 10 10 10 11 10 9 8 8 8 8 7 8 8 9 9 6 6 7 8 9 8 7 8 8 9 10 11 11 9 10 11 9 8 9 11 10 9 14 18 17 20 24 26 29 29 28 29 28 31 31 28 26 25 24 22 21 19
2 2 2 2 2 3 3 3 3 3 3 3 3 3 3 3 3 4 4 4 5 5 5 6 7 8 8 9 8 8 9 9 8 8 8 7 7 7 7 7 7 8 9 10 11 9 6 6 6 7 8 6 5 7 8 8 8 8 9 8 9 11 7 7 9 10 10 9 13 16 15 19 22 24 26 27 27 28 28 32 33 27 24 24 22 20 19 18
3 3 3 3 3 3 3 4 4 3 4 4 4 4 4 4 4 5 5 4 6 8 10 10 10 10 9 10 9 8 9 8 8 8 8 7 8 7 6 6 6 9 10 12 13 9 5 5 5 4 5 4 4 7 7 5 5 7 6 5 7 8 6 7 9 10 9 9 10 11 12 17 20 23 24 25 26 27 28 30 32 27 24 23 21 20 19 18
4 4 3 4 3 3 4 4 4 4 4 4 4 4 5 5 5 5 6 7 10 12 13 12 11 10 11 10 8 8 8 8 8 7 6 7 7 7 7 6 7 8 11 13 12 8 5 5 4 3 3 3 4 6 6 4 4 7 6 4 5 6 6 7 8 9 9 9 9 8 12 17 17 17 19 22 27 29 28 29 30 28 25 23 21 21 20 19
4 4 4 4 4 4 4 5 5 5 5 5 5 5 5 5 7 8 10 12 13 12 11 10 9 9 10 8 6 7 7 7 8 6 6 6 6 7 7 7 8 10 12 13 9 6 5 4 4 3 3 3 4 5 5 4 4 7 8 4 5 7 8 8 8 9 8 10 9 7 15 18 12 12 16 21 27 30 30 30 29 28 26 24 23 22 22 21
4 4 4 4 5 5 5 6 6 6 6 6 6 7 8 10 12 14 14 14 12 10 9 9 8 8 7 7 6 6 6 6 6 6 6 6 6 7 8 8 9 11 13 11 7 6 5 4 4 4 3 3 4 4 4 5 5 6 7 5 5 8 10 9 8 9 8 10 10 8 15 16 10 12 15 20 26 29 29 29 29 29 28 26 25 24 24 23
4 4 5 5 6 6 6 6 6 7 7 8 10 12 14 16 15 15 13 11 10 9 9 8 8 7 6 5 6 6 5 5 5 5 6 6 7 7 7 8 10 12 12 8 6 5 4 4 4 3 3 4 4 4 4 5 5 6 7 7 7 8 9 9 9 10 9 10 10 10 17 16 9 11 14 18 23 24 26 27 28 31 32 30 29 28 27 27
4 4 5 5 6 7 7 7 7 8 10 12 15 15 14 14 12 11 10 10 10 10 9 8 7 7 5 4 6 6 5 5 4 5 6 6 7 6 6 8 9 9 9 7 5 4 3 3 3 3 4 4 5 6 5 5 7 9 9 8 9 9 10 9 9 10 9 8 8 10 15 13 10 12 12 14 16 18 22 26 29 33 33 32 31 31 31 31
4 4 5 5 7 8 8 8 9 11 15 17 16 14 12 10 10 10 9 9 8 9 10 10 9 7 4 4 5 5 4 4 5 5 6 6 6 5 6 6 6 5 6 6 5 4 4 3 4 4 4 5 7 6 7 9 10 10 10 10 10 9 9 9 8 7 6 6 7 8 10 11 11 12 12 13 14 16 20 26 31 33 33 32 31 32 32 33
4 5 6 7 9 10 10 11 13 16 18 17 13 11 10 9 10 10 10 11 9 10 10 10 9 7 4 4 5 5 4 5 4 4 5 6 5 5 5 4 4 5 5 5 5 4 4 5 4 4 5 7 8 8 11 13 12 12 12 11 10 8 7 8 8 6 5 5 7 8 9 10 12 12 13 13 13 16 21 27 32 33 33 32 31 32 31 31
6 8 9 11 12 11 12 14 17 17 15 13 10 9 9 9 8 7 8 9 10 10 10 8 5 5 5 5 6 6 5 5 4 4 4 5 5 4 4 5 5 5 5 4 4 4 5 6 5 7 9 10 10 10 11 12 11 13 12 10 10 9 7 6 6 6 5 6 7 8 10 13 14 14 14 13 13 16 19 25 31 33 33 33 32 30 29 29
12 14 14 14 13 13 15 16 15 13 11 10 9 9 8 8 6 6 5 6 7 8 10 9 5 5 6 6 7 7 5 5 4 4 4 4 5 5 5 6 6 6 5 4 5 6 6 7 9 11 12 12 11 9 8 9 10 11 10 7 7 8 6 5 6 5 6 7 7 8 11 13 16 16 14 13 13 15 18 24 30 32 33 33 31 28 28 29
17 16 15 13 14 17 16 14 11 11 10 10 9 8 7 7 5 6 5 4 6 7 9 10 8 6 5 6 7 7 6 5 5 5 4 5 5 6 6 6 6 6 6 6 7 8 8 9 11 12 11 11 9 7 6 7 8 9 8 5 6 7 5 5 6 5 6 8 7 8 10 13 16 15 12 12 14 15 19 25 29 29 30 29 27 27 27 27
17 15 15 15 18 18 13 11 10 10 9 8 8 7 6 6 5 6 6 6 6 7 7 9 10 8 6 6 6 6 6 5 5 5 5 6 6 6 6 6 6 6 7 9 9 9 9 11 11 10 10 10 8 6 6 6 6 8 6 6 9 9 6 5 5 5 7 9 8 10 13 15 15 11 11 12 14 17 20 24 26 26 26 25 24 25 25 26
17 16 17 18 18 14 11 10 9 9 10 11 10 9 8 6 6 6 5 6 7 7 7 6 7 8 8 7 6 6 5 4 6 6 6 7 7 7 7 7 8 8 9 10 11 11 12 12 10 9 9 8 7 6 5 6 6 7 6 8 10 9 9 8 5 6 8 9 11 17 18 15 12 10 12 15 15 19 21 22 23 23 23 25 27 29 30 32
18 17 17 17 14 11 10 10 10 13 16 16 15 14 13 10 9 8 6 6 6 7 7 7 6 6 7 8 8 7 5 6 6 6 7 8 7 8 8 9 10 10 11 12 12 11 12 12 9 8 8 8 8 6 5 6 6 8 8 10 11 8 10 9 6 7 7 13 18 21 22 18 14 13 13 16 19 20 22 23 24 25 28 32 36 38 40 41
17 15 14 13 11 11 10 9 12 17 17 16 16 16 16 15 12 9 7 6 6 6 7 7 6 6 6 7 9 9 7 6 7 8 9 8 9 10 9 10 10 12 13 13 12 11 12 12 9 8 7 7 7 6 7 6 8 13 13 11 11 8 8 7 8 10 13 21 23 22 27 22 15 18 19 19 22 22 24 26 27 31 36 40 43 44 44 46
14 12 11 11 11 11 10 10 13 16 16 15 16 15 16 16 15 14 9 5 6 7 7 7 8 8 7 7 8 8 7 7 8 9 9 9 10 10 10 10 10 12 14 14 12 12 12 11 8 7 6 6 6 6 7 6 10 18 16 11 9 8 8 7 9 15 16 20 17 16 28 26 19 25 25 23 25 26 27 29 33 39 43 45 46 47 48 52
12 11 10 11 11 12 11 10 11 13 14 15 16 15 13 12 15 18 12 6 7 9 9 8 8 9 8 8 8 7 8 9 9 9 10 10 10 11 11 10 9 11 13 14 15 13 12 11 8 6 5 6 7 7 8 7 11 17 14 10 9 7 9 8 10 15 14 17 17 16 27 31 27 28 27 24 27 30 32 36 42 45 46 46 48 52 59 66
12 11 11 11 12 12 10 10 11 12 14 14 16 15 12 10 11 12 10 9 10 10 11 10 9 9 9 9 9 8 9 10 9 9 10 10 11 10 10 10 9 9 10 13 15 13 10 9 7 6 6 6 7 8 8 8 11 14 13 10 8 7 8 9 12 13 13 19 21 21 29 31 25 25 28 29 31 34 36 40 44 45 47 51 55 64 74 78
13 13 12 12 12 11 10 11 12 13 14 14 15 16 15 13 9 7 8 11 12 10 11 11 10 10 10 9 9 9 9 9 9 10 10 11 11 10 9 9 9 8 9 10 13 14 11 8 7 7 7 6 7 7 8 10 11 12 12 8 7 9 8 9 12 12 15 21 19 19 26 28 24 25 31 34 34 37 41 44 47 48 52 59 68 76 79 76
13 13 12 12 12 12 13 13 14 14 14 14 15 15 15 15 10 9 13 13 12 11 10 9 9 10 10 9 9 8 9 9 9 11 11 12 11 10 8 8 7 7 7 7 10 12 12 9 7 8 8 7 7 7 8 11 12 13 12 8 8 10 10 13 15 12 16 20 16 14 22 31 35 32 32 36 38 41 44 46 48 52 60 73 82 82 76 70
14 13 13 13 13 13 13 13 13 14 14 13 13 12 13 12 8 11 18 15 11 11 9 9 9 8 8 8 8 8 9 9 10 11 11 11 11 8 7 7 6 5 6 6 7 11 13 11 8 8 8 7 7 8 9 10 12 15 14 9 11 15 16 19 20 20 21 19 16 19 30 42 43 37 38 41 41 42 46 50 56 63 71 80 79 68 63 67
14 13 13 12 12 11 11 10 10 10 11 11 12 11 11 9 8 14 18 14 12 11 9 9 8 7 8 7 8 9 9 10 11 11 13 13 11 10 9 9 7 9 11 9 7 10 13 12 10 8 8 8 8 10 14 16 16 19 21 19 19 23 26 25 23 24 24 21 20 24 40 48 39 35 38 37 37 43 52 64 74 78 79 78 71 61 59 60
12 12 11 10 8 8 7 7 6 7 8 9 10 10 8 7 11 15 14 11 11 11 9 9 7 7 7 7 8 9 9 11 12 13 15 14 13 12 12 11 8 10 13 10 7 10 15 15 12 10 9 9 9 10 16 19 19 24 29 30 29 35 44 44 33 29 29 28 23 26 43 45 30 28 33 31 34 43 55 70 82 86 85 79 74 68 55 38
8 8 7 6 5 5 5 5 4 5 6 6 6 6 5 7 11 12 11 10 10 10 9 8 7 7 7 7 8 9 10 12 13 15 15 14 13 12 13 11 9 8 9 12 10 10 18 20 15 12 10 10 10 10 13 17 23 28 26 30 39 44 53 53 40 36 40 37 34 37 43 38 29 33 34 32 39 48 60 71 75 75 77 77 73 61 39 21
4 4 4 4 4 4 4 4 5 5 5 5 5 4 5 10 12 10 10 10 10 10 10 9 7 7 7 7 8 10 12 14 15 16 15 15 15 15 14 12 9 8 9 14 14 10 15 17 14 12 9 9 10 10 13 17 26 31 27 36 44 40 48 55 45 43 51 51 50 47 40 33 33 37 37 41 52 61 64 63 61 64 69 66 56 39 24 23
4 4 4 4 4 4 4 5 5 5 5 5 5 5 7 10 11 10 10 9 8 8 9 9 8 7 7 8 10 11 13 15 16 16 15 17 17 16 16 13 10 9 9 14 16 15 17 16 14 12 8 9 12 12 15 19 22 29 38 45 39 33 52 63 52 46 53 56 49 39 38 37 35 42 55 61 61 60 59 62 67 67 60 45 31 26 28 37
5 5 5 5 5 5 5 5 5 5 5 5 5 6 8 9 9 9 8 8 7 7 8 8 8 8 7 9 12 14 14 15 17 16 15 17 19 18 17 15 12 10 10 12 15 18 20 18 13 11 9 10 13 13 15 19 20 30 44 44 31 36 58 65 59 54 53 52 43 36 43 45 40 49 66 68 62 63 68 74 73 61 48 37 30 36 44 47
6 6 6 6 5 6 5 5 5 5 6 5 5 7 8 8 8 8 7 7 7 6 7 7 8 8 8 11 15 16 16 16 17 17 16 18 20 20 17 16 13 11 10 11 11 13 20 23 14 9 10 10 11 16 18 19 21 29 38 35 32 47 61 62 63 64 59 59 53 45 48 49 46 53 63 65 69 77 79 75 71 66 63 56 47 53 57 53
6 6 6 6 6 5 5 5 5 5 5 5 6 8 8 8 8 7 7 7 7 6 6 7 8 8 10 14 17 17 17 17 17 17 17 18 20 19 17 16 14 12 10 10 10 9 17 27 19 8 9 11 12 17 23 23 24 27 30 32 37 49 58 59 60 58 56 60 61 57 54 47 46 57 68 73 74 78 79 76 73 66 56 51 49 54 56 56
6 5 6 6 6 5 5 6 6 5 5 5 7 8 7 8 7 7 7 7 7 7 6 8 9 10 13 16 18 18 17 18 18 17 17 17 18 18 17 18 15 12 10 10 10 9 15 25 22 10 9 13 14 18 23 25 26 29 34 42 49 53 59 68 69 60 57 60 65 72 66 48 47 62 71 69 65 68 79 85 82 65 46 45 49 49 56 69
6 5 6 6 5 5 6 6 6 6 6 7 7 8 7 8 7 7 7 6 7 7 6 9 10 12 16 17 18 17 16 18 18 17 16 16 16 16 16 18 17 13 11 11 10 10 15 21 20 13 10 12 15 18 22 26 29 33 39 51 65 70 73 77 69 58 62 70 73 80 75 58 60 69 64 62 65 68 80 84 73 59 48 45 45 51 73 92
5 5 6 6 5 6 7 6 6 7 8 7 8 8 7 7 7 7 7 7 7 7 7 10 12 15 18 18 18 16 15 18 18 16 15 15 15 15 14 18 19 15 11 11 11 10 15 18 17 14 12 13 15 18 24 29 33 37 39 49 66 75 78 81 73 68 79 86 78 76 73 62 64 65 56 63 72 70 80 84 63 47 43 46 55 65 77 86
5 5 6 5 6 7 7 7 8 8 9 8 8 8 8 8 7 7 7 8 8 8 8 11 14 17 18 18 17 16 14 16 18 17 14 15 15 13 14 17 19 17 13 12 11 11 16 19 17 15 13 12 13 16 20 23 26 30 33 42 56 61 65 72 73 79 96 96 80 77 77 63 57 59 59 68 72 68 81 90 65 39 35 49 68 74 73 77
5 6 6 7 7 7 7 8 8 9 9 9 9 9 8 9 8 7 8 8 8 8 9 12 17 18 19 18 17 16 14 14 17 16 14 14 14 12 12 16 20 20 15 12 12 12 17 21 20 20 21 20 19 18 20 22 24 26 28 34 41 44 52 62 68 82 97 92 76 76 81 69 60 66 69 69 72 80 92 88 59 37 39 54 63 67 75 85
6 7 8 8 8 8 9 9 9 9 9 9 9 8 8 9 9 9 8 9 9 9 10 14 18 19 19 18 17 15 13 12 13 13 13 14 13 11 12 17 22 22 16 13 13 12 17 23 24 26 30 33 29 25 27 30 31 33 35 34 36 41 51 68 84 94 93 84 80 84 84 76 69 70 69 64 73 92 98 82 60 53 58 60 59 70 86 92
7 7 8 9 9 10 10 10 10 10 10 10 9 9 9 9 10 10 9 10 10 10 12 16 19 20 19 18 17 15 13 12 11 11 12 13 13 11 13 19 26 25 18 14 13 12 17 25 25 23 27 30 27 23 27 34 40 45 43 36 37 44 56 78 98 97 87 87 93 90 85 84 77 68 66 69 81 96 95 80 69 64 57 49 56 80 93 92
8 8 8 9 9 10 11 11 11 10 10 10 10 10 9 10 11 11 10 11 11 12 15 18 20 20 19 18 17 14 13 11 10 10 10 12 13 11 13 21 27 26 19 15 14 13 17 24 24 18 19 23 22 21 28 37 45 50 46 39 38 44 61 87 102 98 96 103 97 76 74 84 75 63 67 77 87 94 89 80 75 65 50 48 66 85 87 85
8 9 9 9 10 10 11 11 11 11 11 11 11 11 10 11 11 11 11 12 12 15 18 19 20 20 19 19 17 14 13 10 9 10 9 11 13 11 13 23 28 26 21 16 14 14 16 21 21 17 18 20 22 22 24 32 38 38 40 42 40 49 74 95 102 99 95 94 82 62 62 68 60 61 77 87 92 92 83 81 80 64 46 53 75 86 85 88
9 10 10 10 11 12 12 12 12 12 12 12 12 12 12 12 12 12 13 14 15 18 20 20 20 21 19 18 16 14 12 10 9 10 10 12 15 13 16 25 28 26 22 16 14 15 17 18 19 19 18 18 21 21 20 25 28 27 36 43 40 56 91 104 101 92 69 49 44 46 53 58 58 73 90 92 88 82 80 86 81 58 48 63 81 88 92 98
8 9 10 11 11 12 13 13 12 13 13 14 13 13 13 14 15 14 14 16 18 19 21 21 21 21 20 18 16 14 12 11 10 9 10 12 15 15 17 23 27 25 20 15 15 17 17 18 20 20 20 19 20 20 21 26 26 25 40 48 37 49 84 93 80 65 41 22 24 40 60 69 71 82 95 97 93 88 91 97 77 50 53 74 87 94 100 100
8 8 9 10 11 12 13 14 14 13 14 16 15 15 15 16 17 17 16 18 20 20 21 22 21 21 20 17 16 14 11 10 10 9 10 11 14 17 16 20 26 25 18 15 17 17 18 19 20 22 25 25 20 19 21 24 30 37 46 45 36 49 77 78 52 32 29 36 44 57 75 82 81 90 97 98 98 96 95 93 72 56 64 80 91 100 102 100
7 7 8 9 10 11 13 15 15 14 15 16 17 17 17 18 18 19 19 20 21 21 22 22 22 21 19 18 16 14 12 10 10 10 10 11 15 17 15 19 24 22 17 17 18 18 19 20 21 27 31 26 21 22 23 26 36 44 41 36 46 68 78 61 34 19 27 49 66 75 82 85 90 99 97 90 92 98 98 88 77 79 86 89 95 101 99 98
Wind_Speed
12 11 10 9 8 7 6 6 5 5 3 2 1 1 3 5 6 7 7 7 8 8 8 8 8 9 10 11 11 10 10 9 9 8 8 8 8 8 8 8 10 9 9 9 9 8 7 6 6 6 6 7 8 8 9 10 10 11 12 12 13 14 15 13 14 15 16 17 20 19 19 19 17 17 17 16 17 18 15 15 13 12 17 21 23 25 24 23
12 11 11 10 9 8 7 7 6 4 3 2 1 2 3 5 6 6 6 7 7 7 8 9 10 11 11 11 10 9 9 8 8 7 7 7 8 8 8 9 10 10 9 9 9 9 9 8 7 7 7 8 9 9 10 11 12 12 13 13 13 13 12 12 14 16 18 18 19 18 18 17 17 18 18 16 16 18 16 13 10 10 14 19 20 20 21 20
12 11 11 10 9 9 8 7 6 5 4 3 2 2 3 4 6 6 6 7 7 8 8 10 10 11 11 10 9 8 8 8 7 6 6 8 8 8 8 8 9 9 9 9 10 10 10 10 10 9 9 10 10 10 11 11 12 12 11 11 11 11 11 13 15 17 18 18 18 17 17 17 18 18 18 15 14 14 12 10 7 6 9 13 15 15 15 15
12 11 10 10 10 10 9 8 6 5 4 3 2 2 3 4 6 7 7 7 7 8 9 10 11 11 10 9 9 8 8 8 7 7 7 8 7 7 7 8 8 9 9 10 10 10 10 10 10 9 9 9 10 10 10 10 11 10 9 9 11 11 12 14 15 16 17 17 17 17 17 17 16 16 15 12 10 8 7 9 8 8 9 11 14 15 15 14
12 11 10 10 10 9 9 7 5 4 3 1 2 3 4 5 6 7 8 8 8 9 9 10 10 10 9 9 8 8 8 8 8 8 7 7 7 7 8 8 9 9 9 10 10 10 10 9 9 8 8 8 8 9 9 9 9 8 8 9 10 11 12 14 15 15 15 16 17 16 16 15 12 12 10 7 7 6 7 10 11 10 11 13 15 17 18 17
12 11 10 9 9 8 7 5 4 3 3 3 3 4 4 4 6 7 8 8 9 9 9 9 9 10 9 9 8 7 8 7 7 7 6 7 8 8 9 9 9 9 9 10 9 9 9 8 8 7 7 6 7 7 8 8 7 7 7 7 10 11 13 14 14 15 16 16 16 14 13 9 7 7 4 3 4 6 8 10 11 11 13 14 16 18 20 21
11 10 9 8 7 6 5 4 3 3 3 4 4 4 3 4 5 6 7 8 8 9 9 9 9 9 8 8 7 7 8 7 7 8 8 8 8 9 9 9 10 9 10 9 9 9 8 8 7 7 7 6 7 8 8 7 6 6 5 8 11 11 12 13 14 15 15 15 14 13 9 3 3 4 2 3 3 4 6 8 10 12 14 15 17 20 22 24
11 9 8 7 5 5 4 4 3 3 3 3 3 3 3 3 4 6 6 7 8 8 8 8 8 8 7 7 7 7 8 8 8 9 9 9 9 10 10 10 10 9 9 9 9 9 9 9 8 8 7 7 7 8 6 6 7 6 5 9 11 10 10 12 14 13 13 15 12 8 6 1 3 4 3 3 2 3 6 8 11 14 16 18 20 23 24 25
10 8 7 6 5 5 4 4 4 3 3 2 2 1 2 3 5 5 6 6 7 7 7 7 6 7 7 7 7 7 9 10 10 11 10 10 10 11 11 10 10 10 10 9 9 9 10 9 8 7 7 7 8 6 6 6 7 7 7 10 8 7 10 12 12 11 13 15 11 7 6 3 4 5 6 6 5 6 8 9 13 17 20 22 25 27 26 26
9 8 7 6 5 5 5 4 4 3 2 1 1 3 4 4 5 5 5 6 6 6 6 7 7 7 8 9 8 9 11 12 12 12 11 11 11 11 10 9 9 9 9 8 8 10 10 8 8 8 7 9 9 7 8 8 8 8 9 10 7 8 12 13 13 11 14 16 12 11 9 5 6 7 9 9 9 10 11 12 16 20 24 27 28 27 26 24
9 8 7 7 6 6 5 4 4 3 3 4 4 5 5 4 4 5 5 5 6 7 8 10 10 10 12 11 10 11 13 13 13 12 11 11 11 10 10 9 9 8 7 7 8 9 10 10 11 11 10 11 10 8 10 12 11 9 11 14 11 11 15 15 15 14 17 19 14 16 15 10 9 10 12 13 12 13 14 15 18 23 25 26 26 25 24 23
9 8 8 7 7 6 5 4 4 4 5 6 6 5 4 4 5 5 6 7 8 10 11 12 12 14 13 8 9 13 13 13 12 12 11 11 10 9 10 9 8 7 6 7 8 10 12 11 13 15 14 13 12 10 11 15 15 9 10 16 15 15 18 17 15 15 18 21 17 18 17 16 14 13 15 16 15 15 16 17 20 24 25 25 25 24 24 23
9 8 7 7 7 6 6 6 6 6 6 6 6 5 5 6 6 8 9 10 12 12 13 13 13 13 9 6 11 14 12 12 11 10 11 10 9 9 10 10 8 7 8 9 10 12 13 14 16 17 14 16 15 12 13 17 19 12 6 13 17 17 19 19 17 15 17 20 19 18 15 19 20 17 17 17 17 18 18 19 21 24 25 25 25 24 23 23
8 7 7 7 7 7 7 8 7 7 6 6 7 7 8 8 10 11 12 12 12 12 12 11 12 12 9 9 12 13 12 11 10 10 10 9 8 9 9 9 9 9 10 10 12 13 14 17 16 14 14 18 16 13 14 15 19 17 11 14 19 20 20 20 20 17 18 19 20 18 12 20 25 22 20 19 19 20 21 22 24 24 24 24 23 23 23 24
8 7 7 7 8 8 8 8 7 7 7 8 9 11 11 12 13 13 12 12 12 11 11 10 9 10 9 11 12 13 12 11 10 10 9 9 10 10 10 10 11 11 11 13 14 14 16 17 13 11 14 16 17 16 12 10 16 20 17 16 19 21 21 22 22 20 22 23 22 19 12 20 26 26 26 24 23 23 23 24 25 24 23 22 22 22 23 23
8 7 7 8 8 9 8 7 7 8 9 11 13 14 14 14 14 14 13 12 10 10 11 10 11 9 8 11 13 12 11 9 11 12 11 12 13 12 12 12 13 13 13 14 15 16 16 14 11 11 13 14 17 16 11 12 20 21 19 17 18 23 24 24 22 21 25 27 25 20 17 22 26 27 28 28 28 28 27 27 26 25 23 22 22 22 22 22
9 8 8 8 8 8 8 8 9 10 13 14 15 15 15 14 14 13 12 11 11 11 10 10 11 11 11 12 12 12 13 14 15 15 15 15 16 15 15 14 15 17 15 14 14 15 13 12 12 10 11 15 18 19 18 20 24 23 20 19 21 24 26 27 25 24 29 29 26 23 22 24 25 26 27 27 29 30 31 29 27 25 24 23 22 22 22 22
10 9 9 8 8 8 9 10 12 13 15 15 15 15 14 13 12 10 9 8 9 11 12 12 10 13 15 14 15 17 18 18 18 18 17 17 17 17 16 14 15 16 14 12 11 12 12 11 11 7 10 19 23 25 23 19 20 21 20 21 23 24 25 27 26 28 32 30 26 25 24 24 23 23 24 27 31 33 32 31 28 27 25 24 24 24 25 25
11 10 10 9 9 10 11 13 15 16 16 16 16 15 14 14 12 11 9 7 8 10 13 16 17 20 20 18 19 20 19 19 19 18 18 17 16 16 15 14 14 13 11 10 9 11 11 10 10 11 17 23 24 24 21 16 16 16 17 21 23 25 26 27 26 30 32 31 29 27 24 22 20 20 25 31 33 33 34 33 31 28 27 27 27 28 28 28
11 11 10 10 11 12 14 16 18 18 17 17 16 15 15 14 12 14 12 12 15 17 17 19 23 24 22 20 20 18 18 18 18 17 17 16 16 15 15 15 12 8 8 11 11 11 11 12 18 22 21 21 21 20 19 18 17 15 19 24 24 26 30 29 28 29 30 31 30 26 24 21 19 22 29 31 30 30 33 33 32 30 29 28 28 29 30 31
12 11 11 12 13 14 16 19 20 20 19 18 16 14 15 13 14 18 17 19 23 22 19 19 20 22 23 21 19 16 16 17 17 16 16 16 15 13 13 13 10 7 7 11 11 9 12 17 24 22 19 19 19 20 21 20 18 17 21 26 25 28 33 30 28 29 30 30 27 23 23 22 22 28 30 28 26 28 31 32 31 30 29 28 30 33 35 36
12 12 13 14 15 17 19 20 22 21 20 19 17 15 15 16 17 19 20 24 26 23 21 19 16 17 20 21 20 15 10 9 13 15 16 16 13 12 13 11 10 8 8 11 12 11 17 23 23 20 19 19 19 21 22 22 20 19 23 26 25 29 34 32 31 31 29 26 23 19 21 24 27 30 28 25 25 28 29 31 31 30 29 32 35 38 40 41
13 13 14 16 18 20 21 22 23 22 21 19 17 15 15 16 17 18 19 22 23 23 22 19 16 15 15 16 18 16 8 7 12 15 15 15 13 14 14 12 11 8 7 12 16 18 21 22 21 20 20 19 19 21 22 23 22 20 24 24 25 30 31 32 35 32 26 22 18 17 22 27 27 26 24 24 26 27 28 30 31 31 33 36 39 40 41 42
14 15 16 18 20 21 22 23 23 21 19 16 14 12 12 12 14 16 18 21 21 21 20 19 17 17 15 13 13 15 14 12 15 17 16 16 15 15 15 13 11 7 8 14 18 20 20 18 21 22 21 21 21 22 24 25 23 21 23 23 26 31 27 28 31 29 25 19 15 18 21 24 24 23 24 24 25 27 28 30 31 33 35 36 37 37 37 39
17 17 18 20 20 21 22 22 21 17 14 13 12 10 8 8 10 13 15 18 20 19 18 17 17 18 18 15 12 11 14 16 18 19 18 17 17 17 16 15 13 9 9 13 16 19 17 17 21 23 23 22 23 25 26 27 24 20 22 24 28 30 26 27 26 24 23 15 15 20 13 16 26 27 24 24 24 26 29 31 33 34 35 35 35 36 39 41
18 18 19 19 19 19 20 20 18 13 9 9 11 10 7 6 7 7 9 14 18 19 18 17 18 19 18 18 14 8 10 18 21 20 19 19 18 18 17 16 15 12 8 8 14 17 17 18 21 23 25 23 25 27 27 29 25 18 21 26 30 28 26 27 21 17 21 18 19 18 7 14 28 27 22 24 24 27 30 32 34 34 34 35 36 40 43 45
18 17 17 17 17 16 16 16 14 8 3 6 10 9 8 6 4 2 2 7 15 19 18 17 18 18 18 19 17 11 11 16 19 19 19 19 18 18 16 16 16 14 10 7 10 15 17 18 20 23 25 24 27 28 27 28 24 20 23 29 32 28 27 25 16 16 24 24 18 10 6 15 24 20 22 29 28 28 31 31 32 33 34 38 41 44 44 44
16 16 16 15 14 14 14 13 10 4 1 5 7 6 5 6 4 3 3 4 9 15 16 16 16 17 17 18 17 17 17 15 17 19 20 19 17 15 15 17 17 16 13 9 9 14 17 18 20 24 26 26 26 26 25 25 23 23 25 31 34 29 29 23 13 20 28 21 11 6 7 12 20 22 24 30 28 25 28 29 32 36 38 42 43 43 43 45
15 14 13 13 13 12 11 8 5 1 3 4 4 4 3 4 3 5 6 5 6 12 14 14 14 15 16 16 17 19 18 17 18 19 18 18 16 14 14 16 18 19 18 14 10 12 16 19 21 25 26 25 24 24 24 22 24 25 26 36 36 30 33 23 14 27 26 12 6 9 12 10 18 29 25 22 24 24 27 31 36 40 42 43 42 42 45 51
12 12 11 11 9 8 5 3 2 2 3 3 3 2 2 2 2 5 6 5 6 11 13 14 14 14 14 15 17 18 18 18 19 17 16 16 16 13 13 15 16 18 19 17 13 9 12 18 22 25 26 24 23 24 24 22 23 25 30 41 39 34 35 19 15 28 17 6 9 17 22 15 14 22 19 18 23 25 31 37 40 41 40 38 39 44 51 56
8 7 7 5 4 2 1 1 1 1 1 2 4 3 2 2 3 6 5 3 6 9 11 14 15 15 15 17 18 18 18 18 18 17 16 16 15 12 14 16 16 15 15 18 16 8 6 14 23 25 25 25 25 26 26 24 24 26 32 42 37 31 28 12 10 18 6 7 17 22 28 19 10 14 17 20 27 31 35 38 37 37 36 37 43 51 56 58
5 5 4 3 3 3 3 3 3 3 3 3 5 5 4 6 8 10 6 2 3 6 10 13 15 17 17 18 19 18 18 19 19 19 19 19 20 20 21 23 22 17 15 20 22 12 3 10 22 26 26 27 27 28 26 23 25 25 30 37 28 17 15 9 8 10 5 14 25 27 26 19 15 18 23 30 37 39 36 31 31 33 38 44 52 58 61 65
8 7 7 7 7 6 6 6 5 5 4 3 5 4 5 8 9 9 9 6 4 7 10 12 14 17 17 18 19 19 18 20 20 20 20 19 21 25 25 25 25 21 16 19 24 20 8 6 17 26 27 26 27 29 26 24 24 24 27 30 20 8 7 7 7 8 9 18 34 39 27 18 20 23 28 39 44 42 36 31 32 37 44 50 55 62 70 73
11 10 9 9 8 8 8 7 7 7 6 5 6 5 7 13 11 9 10 8 7 8 10 12 13 15 17 18 18 19 18 19 20 19 18 17 19 23 22 22 24 23 20 18 21 24 13 5 13 24 27 25 25 26 25 23 19 19 25 25 17 9 5 5 7 9 12 20 35 37 19 12 20 26 34 43 41 36 32 33 40 44 45 50 56 66 73 70
12 11 11 10 9 9 7 7 7 6 7 7 5 6 12 15 13 12 12 9 7 7 7 10 13 14 16 17 18 19 17 18 19 17 17 18 20 22 21 21 23 23 23 18 17 22 15 6 11 22 27 25 23 24 25 22 15 16 24 25 20 14 8 10 13 18 19 19 22 22 17 19 25 31 38 36 28 26 31 41 49 48 48 54 62 68 69 66
12 12 11 9 9 8 7 8 7 6 9 6 4 13 20 16 13 14 13 12 12 11 8 8 13 15 16 17 18 19 17 17 18 17 17 17 18 20 20 20 22 24 24 20 18 20 16 7 9 21 29 25 21 23 24 21 19 19 19 21 24 16 8 10 16 22 19 12 13 16 23 30 28 24 24 20 21 31 41 48 48 48 55 65 67 68 68 69
13 13 12 10 10 9 9 9 7 9 10 4 5 19 23 18 16 15 13 12 13 14 14 12 13 16 16 17 18 18 16 16 17 16 17 16 14 17 18 18 20 22 23 22 20 20 17 10 11 23 29 25 21 22 22 22 24 21 16 23 26 13 2 4 10 16 12 8 13 17 25 33 27 15 12 19 30 39 43 45 48 57 65 66 67 68 70 72
14 14 13 12 12 13 14 10 9 12 9 4 13 23 20 17 17 14 13 13 12 14 17 16 15 16 17 17 18 18 15 15 16 15 15 15 13 15 16 16 19 21 22 22 23 24 19 11 14 27 30 25 22 21 21 24 26 22 21 28 25 8 2 7 8 10 10 8 10 15 24 29 22 15 20 31 36 37 43 49 52 56 56 59 67 70 72 73
13 13 13 14 13 14 18 16 15 12 6 8 19 22 17 17 16 13 13 13 13 15 16 17 16 16 17 18 19 19 16 14 16 16 14 14 12 13 15 15 17 20 22 23 24 26 21 10 13 28 31 25 24 22 20 23 28 28 29 32 26 13 8 12 11 11 13 11 11 14 18 18 17 21 28 31 32 39 52 55 52 54 59 65 71 72 71 68
12 12 14 15 12 16 22 19 14 8 6 14 21 19 16 16 14 14 14 13 14 15 15 16 17 16 17 18 18 19 16 12 15 16 14 14 13 13 14 14 15 19 21 22 24 26 21 11 16 31 33 25 23 22 21 22 26 29 30 31 29 22 15 13 13 14 13 10 10 12 14 20 25 26 27 29 37 48 52 47 46 56 68 72 72 72 68 61
11 12 17 16 16 22 21 12 10 12 16 20 21 18 17 15 13 14 14 14 15 15 15 16 16 16 17 18 18 19 16 11 12 15 14 14 13 12 13 12 13 18 21 23 26 26 21 14 22 34 34 26 24 23 23 23 24 27 28 28 27 23 17 12 9 14 16 13 15 14 16 30 32 23 27 37 46 53 48 43 50 61 71 75 74 69 58 52
11 15 20 18 20 23 13 7 14 19 20 20 18 17 17 14 14 14 14 15 15 14 15 15 16 17 17 18 17 17 16 11 10 13 14 14 13 13 14 13 12 16 22 23 26 27 22 19 27 34 30 27 27 25 24 25 26 28 30 31 29 25 21 14 9 18 23 20 24 23 21 32 33 26 37 46 49 53 45 44 59 71 74 73 66 61 55 52
13 18 21 20 22 18 10 12 20 19 19 20 18 17 16 15 15 14 14 15 15 14 15 15 17 17 17 18 17 17 17 12 9 13 14 13 14 14 14 14 13 15 21 24 26 27 21 19 30 37 34 33 33 30 30 30 32 34 35 35 33 30 29 24 20 26 27 22 25 21 17 30 38 39 48 50 51 53 42 41 61 76 74 66 57 56 59 58
17 21 22 21 21 16 14 19 20 19 20 20 17 17 16 15 15 14 14 15 15 14 14 15 17 17 17 18 17 17 17 12 10 12 14 13 13 14 15 15 13 14 20 24 26 27 19 16 26 29 25 27 28 27 28 31 34 34 33 32 32 32 32 29 27 26 23 23 27 20 18 37 49 50 54 54 50 45 38 45 65 74 69 64 61 61 60 59
18 22 23 23 20 16 19 22 19 19 20 18 17 18 16 15 15 14 14 14 15 14 14 15 17 17 17 18 17 17 17 14 11 12 14 13 12 14 15 14 12 12 18 23 26 27 21 17 22 18 10 10 14 16 20 27 32 32 30 30 29 29 28 26 25 21 20 28 33 26 28 48 60 58 58 58 48 39 41 53 64 64 61 63 64 60 57 58
19 20 21 21 20 18 21 22 20 19 18 16 17 17 16 16 15 14 14 14 14 15 14 15 17 17 17 17 16 17 17 15 12 13 15 13 12 14 15 14 12 12 17 23 26 27 24 18 20 21 16 14 17 21 22 24 28 30 31 28 24 24 26 24 21 22 29 35 36 35 38 51 62 64 61 56 44 40 49 57 60 61 63 66 64 57 54 58
20 20 19 17 17 18 20 21 19 18 17 16 16 16 16 16 15 14 14 14 14 15 15 16 17 17 16 16 15 15 16 15 14 15 15 13 13 15 15 14 12 11 17 23 24 27 27 21 22 29 27 20 20 25 26 23 25 30 30 23 20 24 27 23 19 24 31 28 32 47 52 52 61 67 61 50 43 48 56 59 62 67 68 68 64 59 58 60
21 21 20 18 17 17 19 19 18 18 17 16 16 16 16 16 16 15 14 14 15 15 16 17 18 18 17 16 15 15 14 14 14 15 14 12 12 14 15 13 11 12 17 22 25 29 29 26 28 34 31 23 21 28 33 29 26 25 22 18 21 27 26 21 20 26 30 28 38 58 61 56 64 65 53 44 46 54 60 60 65 70 70 69 65 62 62 62
21 20 20 19 18 18 19 18 18 17 16 16 16 17 16 16 15 15 14 14 15 16 17 18 18 18 18 17 17 17 16 15 16 15 13 10 10 13 13 11 10 13 18 22 26 29 31 31 32 35 33 28 26 35 39 30 22 18 13 15 25 29 21 17 22 32 40 47 55 61 60 60 60 50 42 46 54 60 62 63 68 72 70 68 66 64 64 63
20 20 19 19 19 19 18 17 18 17 16 16 16 16 16 15 16 15 14 14 15 16 17 18 19 19 18 18 18 18 18 18 17 16 13 10 10 11 11 11 11 13 18 23 26 29 32 33 33 35 35 31 35 44 40 24 15 13 11 18 30 33 27 25 32 42 53 62 66 62 59 57 47 39 44 55 61 63 65 67 71 71 68 67 66 65 66 68
21 21 20 18 18 19 18 17 16 16 15 16 16 16 15 15 16 15 15 15 16 17 17 18 19 18 18 18 18 18 18 18 18 16 13 12 11 10 11 12 10 13 19 23 27 32 33 34 35 36 33 31 38 47 39 22 10 7 14 26 32 32 33 34 41 51 57 60 62 58 54 49 44 48 58 64 65 66 67 70 72 70 68 69 67 64 66 71
19 19 19 17 17 17 16 16 15 14 15 15 15 15 16 16 16 16 16 16 17 18 18 18 19 18 18 18 19 18 18 18 17 16 14 13 11 10 13 13 10 14 20 23 29 33 33 34 36 33 31 34 42 46 37 19 6 6 19 30 29 28 33 40 51 59 58 53 52 51 48 44 48 57 65 69 70 67 66 69 72 69 66 67 67 68 70 70
Wind_Direction
166 164 166 167 169 170 165 156 151 151 147 129 78 24 16 4 354 350 345 339 335 335 337 341 343 346 352 352 348 346 341 337 335 329 325 327 329 331 333 337 342 345 350 352 353 356 358 352 342 334 322 313 312 311 310 308 310 307 305 302 296 305 313 313 313 305 298 297 302 311 315 314 316 313 313 321 316 308 303 295 291 282 274 275 276 281 286 288
162 162 163 164 166 165 158 149 141 131 109 72 31 24 25 9 354 346 339 332 332 335 338 342 344 348 350 346 345 344 338 335 334 330 332 338 336 334 335 338 340 341 345 348 347 348 347 344 339 333 325 318 315 315 311 310 311 306 306 307 305 314 314 305 301 295 296 302 308 313 316 318 320 317 317 321 311 300 295 286 277 266 266 274 279 285 291 294
156 156 158 160 162 162 155 147 137 120 95 58 23 356 4 357 342 333 327 326 331 338 343 345 346 347 344 341 342 341 338 339 336 333 342 348 344 340 339 336 335 335 337 341 343 342 340 339 336 333 329 323 321 318 312 310 311 309 312 312 311 313 306 299 296 296 302 308 313 317 319 320 322 320 316 311 297 295 306 303 288 273 267 273 281 289 294 298
150 151 154 157 160 159 156 154 144 125 96 55 5 323 322 322 323 322 321 324 329 338 345 347 345 342 340 342 343 342 340 336 332 331 333 344 345 340 335 329 331 333 336 340 340 339 338 335 330 328 326 321 318 316 312 313 314 316 319 312 308 310 303 301 302 305 311 315 318 320 319 321 321 314 307 298 285 289 324 330 324 314 297 289 292 296 298 300
146 147 152 156 157 159 162 167 163 155 135 76 329 303 298 303 309 307 310 322 334 341 345 345 343 341 342 345 346 346 342 329 331 339 336 338 338 334 333 334 340 340 341 343 342 343 341 338 333 331 330 325 321 319 319 321 322 325 324 314 314 315 306 308 314 317 320 321 322 318 317 321 312 300 298 291 292 316 337 335 332 320 307 300 298 299 301 301
144 148 154 157 159 162 166 172 175 188 197 217 262 280 284 291 290 293 311 329 337 340 343 345 344 343 344 347 349 357 357 346 345 353 349 342 340 342 346 347 350 350 352 353 353 354 352 350 348 346 344 342 336 334 335 337 342 337 329 330 326 319 315 320 325 325 326 326 326 323 326 328 294 286 296 285 318 346 337 328 323 313 307 303 300 300 300 299
146 152 158 161 162 161 159 160 171 191 208 220 236 257 265 274 287 310 330 335 340 344 347 348 346 345 348 353 1 10 10 5 2 0 360 0 1 2 3 3 4 7 9 11 14 12 9 9 8 8 5 360 352 348 349 356 3 353 346 346 332 324 326 329 331 333 337 340 339 336 343 356 252 271 279 292 338 350 321 311 304 299 299 297 296 296 296 298
145 151 155 157 154 149 146 147 159 170 188 204 209 229 257 290 322 340 340 344 350 349 349 348 348 353 359 8 20 22 16 18 21 20 23 24 24 22 20 18 19 26 29 32 31 25 22 18 16 16 10 4 359 353 359 12 13 2 353 342 333 339 344 341 347 359 5 360 353 344 342 300 237 253 241 265 307 303 293 290 287 285 286 285 286 289 292 295
141 145 146 145 143 140 139 143 147 154 172 186 198 253 326 348 355 352 350 357 355 354 357 357 4 11 21 34 39 38 35 39 39 39 42 39 36 34 33 34 36 41 40 38 35 29 23 19 20 19 12 7 6 13 25 24 13 2 352 346 341 355 2 2 10 27 28 11 355 335 324 292 257 257 254 258 257 269 277 276 277 276 278 280 283 287 290 291
136 137 136 134 133 132 131 135 135 139 147 116 52 27 23 14 9 6 5 6 6 16 21 25 35 40 51 52 49 55 52 50 48 47 46 44 43 44 45 44 44 43 35 33 34 29 25 29 34 29 25 19 22 39 38 32 27 19 15 16 24 23 16 19 30 45 33 12 345 319 314 290 269 262 255 256 256 264 274 275 272 272 277 282 285 288 289 288
129 126 125 124 124 123 123 122 115 105 83 63 54 46 38 29 23 21 21 27 38 47 48 47 50 55 61 56 56 64 60 54 52 49 48 49 48 50 50 46 45 43 32 31 32 29 32 39 40 35 33 28 30 43 42 41 36 36 44 41 47 42 28 29 39 43 27 12 346 320 313 293 277 269 262 260 260 260 266 271 270 272 278 282 285 287 287 288
123 120 119 118 118 117 115 106 91 78 71 65 60 54 47 40 37 42 48 56 62 62 59 55 57 62 65 65 67 68 63 57 53 49 50 50 48 51 49 42 44 47 41 40 35 35 37 39 38 34 33 31 35 50 49 41 31 46 64 40 39 37 27 26 25 23 14 9 353 331 314 291 282 283 281 277 273 266 263 267 268 272 277 281 283 285 286 289
123 120 115 112 110 107 101 90 81 75 71 68 64 59 55 53 58 65 67 71 71 68 66 62 61 64 69 74 70 70 68 63 58 53 45 39 41 47 45 41 51 60 58 49 41 42 39 37 35 29 29 33 41 55 50 40 30 36 47 19 22 23 16 12 8 6 4 2 351 338 311 290 296 297 291 285 278 275 270 269 269 271 275 279 282 284 286 289
126 119 113 107 100 96 91 85 80 76 74 70 66 63 63 66 70 72 73 75 74 73 71 67 66 66 66 68 67 66 62 57 53 48 38 35 46 53 48 48 61 67 60 49 44 45 40 41 36 24 28 33 38 42 36 33 23 20 15 1 6 8 3 359 357 355 354 355 349 341 304 287 300 299 291 285 275 272 271 269 271 272 274 276 278 282 285 287
125 116 109 100 95 94 89 85 80 77 76 73 70 70 72 75 75 76 77 77 77 77 73 69 68 62 57 62 59 53 47 41 41 44 44 50 57 58 51 53 63 63 54 44 41 42 40 41 32 21 31 29 27 26 16 13 13 16 14 360 358 358 354 354 354 352 350 351 346 341 308 290 301 300 295 291 284 280 276 273 273 274 275 276 278 281 284 287
120 114 106 98 97 95 90 87 82 81 79 76 77 78 80 82 82 80 78 78 80 80 77 69 63 53 48 54 52 52 53 50 51 52 53 53 52 52 50 53 54 49 44 38 34 33 33 30 15 17 24 14 16 17 6 9 14 16 13 2 356 354 353 354 355 351 350 349 344 338 320 306 305 302 299 297 295 292 286 282 278 277 277 278 280 282 284 287
119 116 109 105 104 98 95 91 87 85 83 83 84 84 85 84 83 82 80 81 81 82 78 63 59 59 58 60 58 58 60 58 53 48 46 44 43 45 47 47 44 39 33 28 27 25 21 11 4 5 5 6 13 16 19 19 10 7 8 2 356 356 356 353 351 349 347 346 342 334 324 315 307 302 302 301 300 295 288 283 280 278 279 282 285 286 289 289
124 123 120 119 113 106 100 93 91 89 88 89 88 86 86 84 83 82 83 88 89 86 73 57 59 64 58 59 58 50 47 46 43 42 42 41 42 42 41 37 36 35 26 22 21 15 10 359 349 339 356 14 20 23 29 23 5 3 5 360 354 355 358 353 347 344 342 342 341 334 325 318 309 303 304 305 306 300 292 283 278 278 280 285 290 292 294 294
134 131 127 121 112 106 99 96 95 92 92 92 90 90 87 84 82 78 79 95 99 90 73 57 57 59 52 51 51 46 42 42 40 39 41 40 39 36 32 27 27 27 15 8 7 5 1 348 354 15 22 24 26 27 29 19 8 7 4 1 353 349 354 353 344 341 341 340 339 333 324 316 305 300 305 310 310 304 295 287 281 279 280 284 288 291 294 298
132 125 118 112 107 105 102 102 100 97 97 92 89 89 88 89 87 82 86 95 85 76 70 59 55 57 53 51 50 45 42 43 41 39 39 36 33 28 24 20 13 360 347 358 12 9 357 8 33 39 34 31 30 26 23 18 14 11 5 3 358 350 349 349 344 342 342 337 336 334 324 314 303 303 309 311 309 303 294 286 282 281 282 283 285 291 298 303
120 114 112 110 109 109 108 108 106 103 100 93 91 91 93 96 88 80 81 81 73 66 65 60 57 58 56 56 55 48 44 43 37 35 35 32 29 24 21 17 0 346 359 16 24 14 13 35 43 40 34 32 29 24 21 18 16 11 4 1 1 352 344 347 348 343 341 336 335 333 322 314 308 308 310 309 306 299 290 281 280 282 283 286 292 299 304 304
115 114 113 114 115 116 114 112 109 105 100 96 96 95 93 90 82 76 74 73 70 65 63 60 56 55 53 55 56 53 53 46 34 34 38 34 29 26 24 18 14 27 38 31 28 27 36 44 41 35 33 29 26 24 20 16 14 9 4 2 360 352 344 346 348 342 339 335 334 329 316 311 309 308 308 308 304 296 288 282 280 283 288 293 298 300 299 299
116 116 116 121 123 122 119 115 110 105 100 96 92 88 85 82 79 75 71 71 68 64 61 57 55 50 47 49 49 45 40 36 35 37 41 35 30 32 28 23 29 41 45 36 36 43 50 47 37 33 29 25 23 20 17 15 13 8 5 2 354 350 346 342 340 338 337 336 335 327 312 308 310 311 309 307 303 295 288 285 284 287 292 295 296 296 296 298
120 120 124 127 126 124 120 117 115 109 99 89 83 81 81 81 78 71 67 65 61 57 54 51 51 47 41 41 41 37 33 36 39 39 38 33 30 33 31 32 42 49 47 44 44 49 56 47 35 32 25 21 19 14 14 14 12 8 5 1 351 347 344 338 335 334 337 340 339 329 312 305 309 313 311 308 302 295 291 289 287 288 291 292 294 296 298 302
124 124 126 126 125 124 124 126 128 117 93 77 69 72 82 91 89 75 67 62 55 51 47 43 44 42 38 36 34 30 30 35 41 39 34 30 30 32 32 35 44 57 55 53 50 50 53 42 32 28 21 18 14 11 11 10 10 8 1 357 350 344 343 342 336 332 338 339 334 332 316 302 307 307 308 309 302 297 294 289 286 287 289 291 294 299 303 305
123 123 123 124 126 129 133 140 142 129 95 61 46 54 74 99 113 90 73 60 44 40 40 36 38 37 34 37 34 20 24 33 40 41 31 28 29 30 33 36 44 58 59 53 51 48 45 36 28 23 18 15 13 12 9 7 8 4 354 351 349 345 345 346 338 333 336 328 327 328 296 294 306 306 310 315 308 300 295 288 286 287 290 294 300 304 305 304
120 122 124 127 131 136 143 151 155 148 107 39 31 46 64 71 108 121 91 59 30 26 32 34 40 37 33 40 35 30 40 34 36 39 31 29 28 27 35 41 46 53 51 54 55 47 40 33 25 19 17 15 14 11 6 5 4 356 350 349 349 348 348 349 342 337 333 325 326 329 286 289 298 304 313 315 311 302 294 287 286 290 295 300 303 305 306 309
121 124 128 133 137 143 151 157 165 170 17 15 24 46 61 54 73 76 96 84 16 16 27 33 41 39 36 42 36 39 49 36 32 35 29 27 28 29 37 44 49 49 46 55 63 48 37 29 21 15 16 19 16 8 3 4 359 353 350 348 350 351 353 354 343 340 337 326 324 335 323 300 295 305 311 311 310 303 298 296 297 301 302 304 305 308 314 319
125 131 136 141 144 150 156 164 185 259 344 355 22 48 55 44 66 76 82 86 23 22 31 33 40 41 39 41 36 39 43 36 35 34 26 24 28 34 43 48 53 50 44 43 48 48 34 25 19 13 14 18 14 7 4 3 357 354 349 349 353 354 354 357 348 345 339 315 311 328 331 321 300 305 306 309 312 309 310 309 306 306 305 306 309 313 319 322
132 139 143 149 154 158 166 196 258 311 338 352 8 8 26 39 78 81 74 66 46 41 41 42 46 47 41 36 35 36 34 34 35 31 24 26 29 36 47 52 52 50 47 40 35 39 29 22 16 11 10 12 10 9 8 5 358 355 353 354 356 355 354 357 347 348 341 297 325 322 321 319 298 302 301 302 310 312 313 310 306 304 302 305 311 316 321 323
142 150 151 158 163 165 208 282 306 330 9 41 42 38 93 116 78 76 79 65 58 51 45 46 44 42 37 31 32 30 28 30 29 24 21 23 25 30 44 48 47 49 48 38 32 37 28 18 15 10 5 4 7 8 9 8 1 357 358 359 359 354 353 351 337 349 349 305 323 319 320 317 283 293 299 299 308 314 313 310 304 300 299 306 312 316 318 321
133 134 130 125 114 108 99 90 89 88 90 90 75 72 106 101 64 59 72 82 53 42 44 46 40 36 32 29 29 25 24 26 23 20 19 20 23 29 37 39 38 40 33 24 25 27 20 11 11 7 2 2 3 4 7 7 0 359 3 6 7 356 350 348 331 338 307 302 316 320 323 312 288 294 300 306 314 318 317 309 302 304 312 318 321 321 320 321
102 100 103 101 98 97 93 88 85 82 82 90 91 94 108 91 64 52 64 75 78 61 50 43 35 32 28 26 25 21 21 23 19 18 18 19 25 33 37 35 34 35 26 18 18 16 13 4 4 4 2 1 1 3 5 360 356 1 7 12 16 3 341 330 321 325 306 302 312 317 315 303 303 305 306 312 316 315 312 308 312 323 329 328 328 327 325 322
95 96 98 97 96 94 93 90 83 77 72 83 101 114 99 83 72 70 75 82 90 73 52 42 34 29 26 24 22 18 19 21 17 15 14 15 25 32 35 33 32 31 25 23 17 11 7 347 355 0 360 358 359 3 3 358 356 356 1 11 16 1 325 297 307 312 299 299 307 310 305 300 308 307 309 312 310 306 307 311 316 319 322 322 320 320 320 321
95 97 97 95 91 88 90 88 83 76 74 86 108 104 92 87 83 83 82 81 78 56 40 39 33 30 28 23 20 17 17 18 14 12 12 15 24 28 28 29 28 27 25 24 17 11 6 347 350 357 357 356 358 0 0 1 0 351 356 3 1 347 301 274 286 290 291 292 297 298 293 298 303 302 305 306 301 302 308 310 309 308 310 312 314 317 321 324
95 95 94 88 83 83 81 78 79 79 74 79 106 88 88 94 91 85 79 73 62 47 40 34 27 29 28 21 18 14 12 14 12 11 14 17 23 24 24 25 23 24 24 21 15 10 2 351 352 356 356 357 357 357 359 2 0 355 357 355 351 344 299 278 291 295 295 283 284 294 296 303 310 305 300 299 299 305 307 307 306 307 311 315 320 324 327 328
87 86 85 82 82 80 76 73 75 80 72 53 90 87 88 91 84 80 73 64 56 45 41 36 26 26 23 18 17 12 9 12 10 12 16 16 19 19 20 23 22 22 21 17 13 5 354 346 357 357 355 356 356 354 356 360 360 0 356 347 349 353 296 293 302 300 300 278 284 296 297 304 313 308 297 307 308 308 311 312 313 313 315 323 329 329 328 329
80 81 80 79 80 76 73 69 64 72 66 49 83 87 88 85 78 73 64 54 48 40 36 35 29 23 20 16 13 8 7 10 10 14 18 16 15 15 15 19 21 21 18 14 10 3 354 342 354 357 354 354 357 355 354 356 358 358 349 346 356 12 274 314 311 294 301 295 290 298 297 300 308 307 306 310 312 317 321 321 321 321 323 328 330 328 328 328
79 84 83 79 83 81 71 57 53 63 53 56 80 86 84 80 74 65 58 47 41 38 34 32 27 20 17 13 9 7 5 6 10 14 17 16 12 10 11 14 17 17 13 11 9 3 357 339 339 352 356 356 355 355 353 352 353 351 346 347 356 2 320 316 312 294 298 300 300 309 304 297 304 308 308 312 316 323 326 324 324 326 328 329 328 328 329 329
78 84 81 75 76 73 63 51 44 52 55 64 77 84 80 77 68 57 51 41 37 37 32 27 24 20 15 10 7 6 3 2 6 10 14 13 8 6 6 6 11 12 8 8 7 2 359 342 328 346 359 1 353 352 353 350 350 347 344 346 348 349 340 319 300 292 294 294 307 317 301 294 303 307 311 318 318 320 326 327 326 327 328 328 329 330 331 332
72 75 74 70 64 64 62 53 45 55 65 70 75 77 75 71 61 53 44 35 35 32 28 24 20 18 13 8 6 5 3 358 359 5 7 5 5 4 1 356 1 7 6 6 6 3 359 345 334 344 356 358 350 350 351 349 347 342 340 342 341 344 346 329 301 301 298 285 292 299 291 296 303 308 317 323 321 321 326 325 323 327 328 328 330 331 331 331
71 72 71 65 61 64 63 56 57 60 67 71 72 71 69 62 54 48 38 33 32 26 25 22 17 16 11 7 5 3 3 356 352 0 360 358 360 358 357 355 353 0 3 4 3 1 358 349 342 344 351 356 354 354 351 346 343 338 337 339 337 338 338 327 304 305 303 291 290 290 286 293 298 308 319 323 323 323 324 322 324 328 328 328 330 331 331 333
67 71 69 61 61 64 61 62 64 65 68 69 68 65 60 53 47 41 34 30 26 23 23 18 15 12 7 6 3 0 3 357 348 356 356 354 354 352 355 354 348 354 1 2 1 0 0 354 347 347 351 355 354 352 349 346 342 336 333 334 332 328 326 319 307 302 296 292 299 299 285 290 299 312 319 322 323 322 321 323 327 329 329 329 329 330 334 337
65 70 69 63 62 63 61 64 64 63 65 64 62 58 52 46 41 35 31 26 23 23 20 14 12 8 4 5 1 359 1 357 349 352 351 349 348 350 353 350 344 350 358 0 360 360 1 358 355 353 351 352 351 348 345 338 333 329 325 326 324 320 319 316 313 304 287 287 305 306 286 293 305 315 319 322 325 322 321 324 328 330 330 329 330 332 335 336
66 70 70 67 65 61 61 63 61 58 60 59 57 54 47 41 36 31 28 23 21 20 15 11 8 4 3 2 357 356 357 355 353 349 346 346 345 348 351 346 340 344 354 358 357 358 359 358 0 359 342 333 329 324 326 320 316 317 320 321 318 315 315 314 311 301 288 298 305 296 287 299 309 316 320 324 326 322 323 326 329 330 328 329 331 331 333 335
67 70 71 70 65 56 57 61 59 55 54 53 52 50 42 37 33 29 26 21 18 15 11 8 4 1 2 359 355 354 352 351 354 349 344 343 344 348 349 345 338 338 350 354 353 357 358 354 355 352 335 315 307 311 320 315 307 310 315 317 317 317 316 312 302 293 299 305 299 294 299 305 310 316 322 326 327 324 325 328 328 329 329 331 332 332 332 335
68 68 68 68 63 55 54 57 57 53 50 47 47 46 39 32 28 26 23 18 15 11 6 3 1 359 359 357 355 353 349 347 348 347 344 341 343 349 348 343 337 334 345 350 351 355 357 352 348 348 344 336 325 327 331 321 309 310 312 314 322 324 321 313 297 296 307 306 297 306 314 311 311 318 323 325 327 326 326 328 328 328 331 334 334 334 335 337
69 67 65 63 63 59 54 53 53 51 46 41 41 41 35 29 26 24 20 15 12 7 3 1 359 356 355 355 354 352 349 347 346 345 342 338 340 347 348 342 336 335 342 347 350 353 356 352 346 346 349 349 340 339 340 331 320 316 310 310 324 327 324 317 306 309 318 312 306 313 317 314 314 320 322 323 327 327 326 328 328 330 333 336 336 337 339 338
66 65 63 59 58 56 52 49 47 46 42 36 36 36 31 26 23 20 17 13 8 4 2 359 356 355 353 352 351 350 349 349 347 346 344 340 339 345 349 344 335 338 342 345 349 354 354 351 347 346 350 353 349 347 345 337 328 325 311 314 332 333 327 318 315 319 323 320 316 317 316 315 317 320 319 322 326 327 327 329 331 333 335 338 338 339 339 335
60 59 57 53 51 50 47 44 41 39 36 32 32 31 27 23 20 17 14 10 6 3 0 357 355 354 351 350 349 348 348 347 346 346 346 343 341 344 349 345 337 338 342 344 350 355 354 351 349 347 348 355 354 351 350 344 332 332 320 325 338 337 329 327 327 326 326 323 322 320 316 314 319 320 320 323 325 328 329 330 332 335 337 339 340 339 335 332
56 54 51 48 47 46 42 40 37 34 30 28 28 26 22 18 16 14 10 7 4 2 359 356 355 352 350 349 348 346 346 345 343 343 344 342 339 342 347 345 337 336 341 347 352 355 354 352 351 350 347 352 353 351 354 352 332 326 335 336 338 332 322 325 330 329 327 324 322 320 317 317 322 323 323 325 327 329 330 331 332 336 339 340 339 335 330 330
52 50 48 44 43 43 39 35 34 30 27 26 23 20 17 13 11 10 8 5 1 359 357 355 354 352 349 347 346 345 344 342 341 340 341 340 336 339 346 344 336 337 343 351 353 354 355 354 354 354 347 347 352 352 353 357 348 341 339 331 326 320 318 323 326 327 327 325 320 317 316 318 323 325 325 327 328 328 328 328 330 333 337 338 335 332 330 331